リニア彗星

C/2007 D3 ( LINEAR )

English version
Home page
Total 6,336 html files since Dec. 4, 1995
Updated on April 3, 2008

---------------------------------------------------------------------

・ プロフィール

発見日 2007年2月20日
発見光度 19.2等
発見者 Lincoln Laboratory Near-Earth Asteroid Research project

・ 写真集

・ 軌道要素

Epoch 2007 May 20.0 TT = JDT 2454240.5
T 2007 May 27.76954 TT                                  MPC
q   5.2090303            (2000.0)            P               Q
z  +0.0015445      Peri.  309.09887     -0.25472127     -0.89091250
 +/-0.0000088      Node   148.43460     +0.94670388     -0.15046924
e   0.9919545      Incl.   45.91614     -0.19715184     +0.42852529

・ 光度変化

        m1 = 7.5 + 5 logΔ + 10.0 log r

---------------------------------------------------------------------

軌道要素はM.P.E.C. 2007-X37に掲載されたものです。
光度グラフはComet for Windowsで作成したものです。

---------------------------------------------------------------------

Copyright(C) 1995-2008 Seiichi Yoshida (comet@aerith.net). All rights reserved.